This is the latest recevied weather packets stored in our database for station/object JH7UAX-10. If no packets are shown the sender has not sent any weather packets the latest 10 day(s).
| Time | Temp. | Humidity | Pressure | Rain* | Wind** | Luminosity | Snow |
|---|---|---|---|---|---|---|---|
| 1777693078 | 14.44° C | 78% | 1014.1 hPa | 0 mm | - | - | - |
| 1777692605 | 13.89° C | 77% | 1014 hPa | 0 mm | - | - | - |
| 1777692180 | 14.44° C | 76% | 1013.8 hPa | 0 mm | - | - | - |
| 1777691705 | 14.44° C | 78% | 1013.6 hPa | 0 mm | - | - | - |
| 1777691279 | 13.89° C | 79% | 1013.5 hPa | 0 mm | - | - | - |
| 1777690805 | 13.33° C | 81% | 1013.5 hPa | 0 mm | - | - | - |
| 1777690379 | 13.33° C | 84% | 1013.3 hPa | 0 mm | - | - | - |
| 1777689478 | 13.33° C | 83% | 1012.9 hPa | 0 mm | - | - | - |
| 1777689006 | 13.33° C | 82% | 1012.7 hPa | 0 mm | - | - | - |
| 1777688578 | 13.33° C | 82% | 1012.5 hPa | 0 mm | - | - | - |
| 1777688106 | 13.33° C | 82% | 1012.3 hPa | 0 mm | - | - | - |
| 1777687679 | 13.33° C | 81% | 1012.3 hPa | 0 mm | - | - | - |
| 1777687205 | 13.33° C | 81% | 1012.1 hPa | 0 mm | - | - | - |
| 1777686779 | 13.33° C | 82% | 1012 hPa | 0 mm | - | - | - |
| 1777685879 | 13.33° C | 81% | 1011.9 hPa | 0 mm | - | - | - |
| 1777685406 | 13.33° C | 82% | 1011.8 hPa | 0 mm | - | - | - |
| 1777684978 | 13.33° C | 80% | 1011.8 hPa | 0 mm | - | - | - |
| 1777684078 | 13.33° C | 81% | 1012 hPa | 0 mm | - | - | - |
| 1777683606 | 13.33° C | 82% | 1011.8 hPa | 0 mm | - | - | - |
| 1777683178 | 12.78° C | 84% | 1011.5 hPa | 0 mm | - | - | - |
| 1777682279 | 12.78° C | 87% | 1011.1 hPa | 0 mm | - | - | - |
| 1777681806 | 12.78° C | 89% | 1011 hPa | 0 mm | - | - | - |
| 1777681378 | 12.22° C | 91% | 1010.9 hPa | 0 mm | - | - | - |
| 1777680906 | 12.22° C | 91% | 1010.9 hPa | 0 mm | - | - | - |
| 1777680478 | 12.22° C | 90% | 1010.9 hPa | 0 mm | - | - | - |
* Rain latest hour (hover to see other rain measurements)
** Current wind speed in m/s (hover to see current wind gust speed)